Regional Weather Roundup
Issued by NWS

Home | Current Version | Previous Version | Text Only | Print | Product List | Glossary Off
Versions: 1 2 3 4 5 6 7 8 9 10 11 12 13 14 15 16 17 18 19 20 21 22 23 24 25 26 27 28 29 30 31 32 33 34 35 36 37 38 39 40 41 42 43 44 45 46 47 48 49 50

000
ASUS43 KOAX 030702
RWRNE

WEATHER ROUNDUP FOR NEBRASKA
NATIONAL WEATHER SERVICE OMAHA NE
100 AM CST TUE MAR 03 2015

NOTES: SATELLITE DATA IS BEING USED TO AUGMENT CLOUD COVER ABOVE
       12000 FEET.
       "FAIR" INDICATES FEW OR NO CLOUDS BELOW 12,000 FEET WITH NO
       SIGNIFICANT WEATHER AND/OR OBSTRUCTIONS TO VISIBILITY.

  * THESE STATIONS DO NOT REPORT WEATHER SUCH AS RAIN...SNOW OR FOG.

NEZ001>004-019>022-054>056-030800-
NEBRASKA PANHANDLE

CITY           SKY/WX    TMP DP  RH WIND       PRES   REMARKS
SCOTTSBLUFF    LGT SNOW  29  28  96 N7        29.61R VSB 1   WCI  22
ALLIANCE       CLOUDY    29  24  82 NE6       29.56F WCI  23
CHADRON        LGT SNOW  31  28  89 N16G23    29.67R VSB 1   WCI  20
KIMBALL        CLOUDY    28  28  98 CALM      29.52F FOG
SIDNEY         FOG       29  27  92 NE6       29.57S VSB 1   WCI  23
$$

NEZ057>060-069>072-079>082-030800-
SOUTHWEST NEBRASKA

CITY           SKY/WX    TMP DP  RH WIND       PRES   REMARKS
NORTH PLATTE   CLOUDY    28  22  78 SE6       29.64F WCI  22
IMPERIAL         N/A     29  24  82 E9        29.58F WCI  20
LEXINGTON      CLOUDY    29  22  75 SE12      29.64F WCI  19
MCCOOK         CLOUDY    31  24  75 E6        29.61F WCI  25
$$

NEZ005>010-023>029-035>040-094-030800-
NORTH CENTRAL NEBRASKA

CITY           SKY/WX    TMP DP  RH WIND       PRES   REMARKS
VALENTINE      CLOUDY    31  24  75 SW7       29.66F HAZE    WCI  24
AINSWORTH      CLOUDY    30  22  73 S9        29.68F WCI  21
BROKEN BOW     CLOUDY    29  19  66 S8        29.68S WCI  21
ORD            CLOUDY    29  17  61 S10       29.69F WCI  20
$$

NEZ041-046>049-061>064-073>077-083>087-030800-
SOUTH CENTRAL NEBRASKA

CITY           SKY/WX    TMP DP  RH WIND       PRES   REMARKS
GRAND ISLAND   CLOUDY    29  21  72 S13G22    29.72F WCI  19
AURORA         CLOUDY    30  22  74 S13       29.72F WCI  20
HASTINGS       CLOUDY    28  21  75 SE13      29.70F WCI  17
HEBRON         CLOUDY    31  26  80 SE13G18   29.76F WCI  21
KEARNEY *      CLOUDY    28  19  69 S15       29.68F WCI  17
$$

NEZ011>018-030>034-042>045-030800-
NORTHEAST NEBRASKA

CITY           SKY/WX    TMP DP  RH WIND       PRES   REMARKS
NORFOLK        CLOUDY    30  19  63 S12       29.75F WCI  20
ALBION         CLOUDY    30  19  64 S16       29.73F WCI  19
BLAIR          CLOUDY    32  21  64 S15G21    29.81F WCI  22
COLUMBUS *     CLOUDY    30  18  59 S15       29.78F WCI  19
FREMONT        CLOUDY    32  23  68 SE12      29.82F WCI  23
TEKAMAH        CLOUDY    32  21  64 S13       29.84F WCI  22
$$

NEZ050>053-065>068-078-088>093-030800-
SOUTHEAST NEBRASKA

CITY           SKY/WX    TMP DP  RH WIND       PRES   REMARKS
LINCOLN        CLOUDY    32  23  69 S15       29.83F WCI  22
OMAHA EPPLEY   CLOUDY    32  21  64 S18       29.85F WCI  20
BEATRICE       CLOUDY    32  27  81 S10G17    29.81F WCI  23
FALLS CITY     CLOUDY    34  24  67 S10       29.89F WCI  26
NEBRASKA CITY  CLOUDY    32  21  64 S12       29.85F WCI  23
$$

NEZ044-045-051>053-067-030800-
OMAHA AREA

CITY           SKY/WX    TMP DP  RH WIND       PRES   REMARKS
OMAHA EPPLEY   CLOUDY    32  21  64 S18       29.85F WCI  20
BLAIR          CLOUDY    32  21  64 S15G21    29.81F WCI  22
FREMONT        CLOUDY    32  23  68 SE12      29.82F WCI  23
OFFUTT AFB     CLOUDY    32  21  65 SE15      29.85F WCI  21
WAHOO          CLOUDY    32  22  65 S14G20    29.82F WCI  22
$$



USA.gov is the U.S. government's official web portal to all federal, state and local government web resources and services.